Location: *
(2.5500°S, 65.9667°W)
Time: 11:34:11
(UTC+00:00)

Cosmos 2237 Rocket - Pass Details

Date: 26 October 2021
Orbit: 834 x 850 km, 71.0° (Epoch: 29 November)

Event Time Altitude Azimuth Distance (km) Brightness Sun altitude
Rises 22:41:42 0° 177° (S) 3,397 5.5 -7.7°
Reaches altitude 10° 22:44:26 10° 166° (SSE) 2,462 4.6 -8.4°
Maximum altitude 22:49:19 30° 106° (ESE) 1,471 3.0 -9.5°
Drops below altitude 10° 22:54:11 10° 46° (NE) 2,461 4.1 -10.7°
Enters shadow 22:54:36 - 44° (NE) 2,598 4.2 -10.8°
